owner,sensor,date,latitude,longitude,vertical_datum,mass_concentration_of_oxygen_in_sea_water,qcFlag 
SCCF RECON,ioos:station:SCCF:16:1,2009-02-01T00:00:00Z,26.4345,-81.9647,2.166,7.02,1111122 
SCCF RECON,ioos:station:SCCF:16:1,2009-02-01T01:00:00Z,26.4345,-81.9647,2.054,7.04,1111122 
SCCF RECON,ioos:station:SCCF:16:1,2009-02-01T02:00:00Z,26.4345,-81.9647,1.99,6.98,1111122 
SCCF RECON,ioos:station:SCCF:16:1,2009-02-01T03:00:00Z,26.4345,-81.9647,1.945,7.06,1111122 
SCCF RECON,ioos:station:SCCF:16:1,2009-02-01T04:00:00Z,26.4345,-81.9647,1.997,7.03,1111122 
SCCF RECON,ioos:station:SCCF:16:1,2009-02-01T05:00:00Z,26.4345,-81.9647,2.093,7.01,1111122 
SCCF RECON,ioos:station:SCCF:16:1,2009-02-01T06:00:00Z,26.4345,-81.9647,2.23,7.06,1111122 
SCCF RECON,ioos:station:SCCF:16:1,2009-02-01T07:00:00Z,26.4345,-81.9647,2.284,7.1,1111122 
SCCF RECON,ioos:station:SCCF:16:1,2009-02-01T08:00:00Z,26.4345,-81.9647,2.322,7.03,1111122 
SCCF RECON,ioos:station:SCCF:16:1,2009-02-01T09:00:00Z,26.4345,-81.9647,2.353,7.01,1111122 
SCCF RECON,ioos:station:SCCF:16:1,2009-02-01T10:00:00Z,26.4345,-81.9647,2.361,7.01,1111122 
SCCF RECON,ioos:station:SCCF:16:1,2009-02-01T11:00:00Z,26.4345,-81.9647,2.277,6.96,1111122 
SCCF RECON,ioos:station:SCCF:16:1,2009-02-01T12:00:00Z,26.4345,-81.9647,2.183,6.92,1111122 
SCCF RECON,ioos:station:SCCF:16:1,2009-02-01T13:00:00Z,26.4345,-81.9647,2.13,6.91,1111122 
SCCF RECON,ioos:station:SCCF:16:1,2009-02-01T14:00:00Z,26.4345,-81.9647,2.081,6.92,1111122 
SCCF RECON,ioos:station:SCCF:16:1,2009-02-01T15:00:00Z,26.4345,-81.9647,2.091,6.92,1111122 
SCCF RECON,ioos:station:SCCF:16:1,2009-02-01T16:00:00Z,26.4345,-81.9647,2.212,6.91,1111122 
SCCF RECON,ioos:station:SCCF:16:1,2009-02-01T17:00:00Z,26.4345,-81.9647,2.328,7.03,1111122 
SCCF RECON,ioos:station:SCCF:16:1,2009-02-01T18:00:00Z,26.4345,-81.9647,2.424,7.15,1111122 
SCCF RECON,ioos:station:SCCF:16:1,2009-02-01T19:00:00Z,26.4345,-81.9647,2.529,7.28,1111122 
SCCF RECON,ioos:station:SCCF:16:1,2009-02-01T20:00:00Z,26.4345,-81.9647,2.608,7.33,1111122 
SCCF RECON,ioos:station:SCCF:16:1,2009-02-01T21:00:00Z,26.4345,-81.9647,2.631,7.41,1111122 
SCCF RECON,ioos:station:SCCF:16:1,2009-02-01T22:00:00Z,26.4345,-81.9647,2.617,7.46,1111122 
SCCF RECON,ioos:station:SCCF:16:1,2009-02-01T23:00:00Z,26.4345,-81.9647,2.495,7.36,1111122 
SCCF RECON,ioos:station:SCCF:16:1,2009-02-02T00:00:00Z,26.4345,-81.9647,2.386,7.37,1111122 
SCCF RECON,ioos:station:SCCF:16:1,2009-02-02T01:00:00Z,26.4345,-81.9647,2.222,7.24,1111122 
SCCF RECON,ioos:station:SCCF:16:1,2009-02-02T02:00:00Z,26.4345,-81.9647,2.094,7.17,1111122 
SCCF RECON,ioos:station:SCCF:16:1,2009-02-02T03:00:00Z,26.4345,-81.9647,2.013,7.09,1111122 
SCCF RECON,ioos:station:SCCF:16:1,2009-02-02T04:00:00Z,26.4345,-81.9647,1.986,7.07,1111122 
SCCF RECON,ioos:station:SCCF:16:1,2009-02-02T05:00:00Z,26.4345,-81.9647,2.054,7.24,1111122 
SCCF RECON,ioos:station:SCCF:16:1,2009-02-02T06:00:00Z,26.4345,-81.9647,2.151,7.29,1111122 
SCCF RECON,ioos:station:SCCF:16:1,2009-02-02T07:00:00Z,26.4345,-81.9647,2.232,7.27,1111122 
SCCF RECON,ioos:station:SCCF:16:1,2009-02-02T08:00:00Z,26.4345,-81.9647,2.304,7.29,1111122 
SCCF RECON,ioos:station:SCCF:16:1,2009-02-02T09:00:00Z,26.4345,-81.9647,2.361,7.25,1111122 
SCCF RECON,ioos:station:SCCF:16:1,2009-02-02T10:00:00Z,26.4345,-81.9647,2.439,7.19,1111122 
SCCF RECON,ioos:station:SCCF:16:1,2009-02-02T11:00:00Z,26.4345,-81.9647,2.481,7.2,1111122 
SCCF RECON,ioos:station:SCCF:16:1,2009-02-02T12:00:00Z,26.4345,-81.9647,2.446,7.18,1111122 
SCCF RECON,ioos:station:SCCF:16:1,2009-02-02T13:00:00Z,26.4345,-81.9647,2.399,7.13,1111122 
SCCF RECON,ioos:station:SCCF:16:1,2009-02-02T14:00:00Z,26.4345,-81.9647,2.294,7.11,1111122 
SCCF RECON,ioos:station:SCCF:16:1,2009-02-02T15:00:00Z,26.4345,-81.9647,2.305,7.08,1111122 
SCCF RECON,ioos:station:SCCF:16:1,2009-02-02T16:00:00Z,26.4345,-81.9647,2.337,7.08,1111122 
SCCF RECON,ioos:station:SCCF:16:1,2009-02-02T17:00:00Z,26.4345,-81.9647,2.402,7.14,1111122 
SCCF RECON,ioos:station:SCCF:16:1,2009-02-02T18:00:00Z,26.4345,-81.9647,2.527,7.26,1111122 
SCCF RECON,ioos:station:SCCF:16:1,2009-02-02T19:00:00Z,26.4345,-81.9647,2.675,7.39,1111122 
SCCF RECON,ioos:station:SCCF:16:1,2009-02-02T20:00:00Z,26.4345,-81.9647,2.782,7.44,1111122 
SCCF RECON,ioos:station:SCCF:16:1,2009-02-02T21:00:00Z,26.4345,-81.9647,2.813,7.35,1111122 
SCCF RECON,ioos:station:SCCF:16:1,2009-02-02T22:00:00Z,26.4345,-81.9647,2.753,7.34,1111122 
SCCF RECON,ioos:station:SCCF:16:1,2009-02-02T23:00:00Z,26.4345,-81.9647,2.765,7.33,1111122 
SCCF RECON,ioos:station:SCCF:16:1,2009-02-03T00:00:00Z,26.4345,-81.9647,2.646,7.3,1111122 
SCCF RECON,ioos:station:SCCF:16:1,2009-02-03T01:00:00Z,26.4345,-81.9647,2.469,7.26,1111122 
SCCF RECON,ioos:station:SCCF:16:1,2009-02-03T02:00:00Z,26.4345,-81.9647,2.373,7.21,1111122 
SCCF RECON,ioos:station:SCCF:16:1,2009-02-03T03:00:00Z,26.4345,-81.9647,2.214,7.13,1111122 
SCCF RECON,ioos:station:SCCF:16:1,2009-02-03T04:00:00Z,26.4345,-81.9647,2.11,7.13,1111122 
SCCF RECON,ioos:station:SCCF:16:1,2009-02-03T05:00:00Z,26.4345,-81.9647,2.001,7.08,1111122 
SCCF RECON,ioos:station:SCCF:16:1,2009-02-03T06:00:00Z,26.4345,-81.9647,1.899,7.1,1111122 
SCCF RECON,ioos:station:SCCF:16:1,2009-02-03T07:00:00Z,26.4345,-81.9647,2.018,7.03,1111122 
SCCF RECON,ioos:station:SCCF:16:1,2009-02-03T08:00:00Z,26.4345,-81.9647,2.123,7.17,1111122 
SCCF RECON,ioos:station:SCCF:16:1,2009-02-03T09:00:00Z,26.4345,-81.9647,2.158,7.09,1111122 
SCCF RECON,ioos:station:SCCF:16:1,2009-02-03T10:00:00Z,26.4345,-81.9647,2.376,7.12,1111122 
SCCF RECON,ioos:station:SCCF:16:1,2009-02-03T11:00:00Z,26.4345,-81.9647,2.418,7.18,1111122 
SCCF RECON,ioos:station:SCCF:16:1,2009-02-03T12:00:00Z,26.4345,-81.9647,2.413,7.12,1111122 
SCCF RECON,ioos:station:SCCF:16:1,2009-02-03T13:00:00Z,26.4345,-81.9647,2.325,7.12,1111122 
SCCF RECON,ioos:station:SCCF:16:1,2009-02-03T14:00:00Z,26.4345,-81.9647,2.205,7.08,1111122 
SCCF RECON,ioos:station:SCCF:16:1,2009-02-03T15:00:00Z,26.4345,-81.9647,2.205,7.04,1111122 
SCCF RECON,ioos:station:SCCF:16:1,2009-02-03T16:00:00Z,26.4345,-81.9647,2.276,7.08,1111122 
SCCF RECON,ioos:station:SCCF:16:1,2009-02-03T17:00:00Z,26.4345,-81.9647,2.297,7.15,1111122 
SCCF RECON,ioos:station:SCCF:16:1,2009-02-03T18:00:00Z,26.4345,-81.9647,2.324,7.2,1111122 
SCCF RECON,ioos:station:SCCF:16:1,2009-02-03T19:00:00Z,26.4345,-81.9647,2.37,7.27,1111122 
SCCF RECON,ioos:station:SCCF:16:1,2009-02-03T20:00:00Z,26.4345,-81.9647,2.363,7.32,1111122 
SCCF RECON,ioos:station:SCCF:16:1,2009-02-03T21:00:00Z,26.4345,-81.9647,2.43,7.33,1111122 
SCCF RECON,ioos:station:SCCF:16:1,2009-02-03T22:00:00Z,26.4345,-81.9647,2.495,7.35,1111122 
SCCF RECON,ioos:station:SCCF:16:1,2009-02-03T23:00:00Z,26.4345,-81.9647,2.487,7.37,1111122 
SCCF RECON,ioos:station:SCCF:16:1,2009-02-04T00:00:00Z,26.4345,-81.9647,2.441,7.27,1111122 
SCCF RECON,ioos:station:SCCF:16:1,2009-02-04T01:00:00Z,26.4345,-81.9647,2.42,7.23,1111122 
SCCF RECON,ioos:station:SCCF:16:1,2009-02-04T02:00:00Z,26.4345,-81.9647,2.29,7.24,1111122 
SCCF RECON,ioos:station:SCCF:16:1,2009-02-04T03:00:00Z,26.4345,-81.9647,2.153,7.27,1111122 
SCCF RECON,ioos:station:SCCF:16:1,2009-02-04T04:00:00Z,26.4345,-81.9647,2.047,7.19,1111122 
SCCF RECON,ioos:station:SCCF:16:1,2009-02-04T05:00:00Z,26.4345,-81.9647,1.955,7.43,1111122 
SCCF RECON,ioos:station:SCCF:16:1,2009-02-04T06:00:00Z,26.4345,-81.9647,1.875,7.41,1111122 
SCCF RECON,ioos:station:SCCF:16:1,2009-02-04T07:00:00Z,26.4345,-81.9647,1.864,7.16,1111122 
SCCF RECON,ioos:station:SCCF:16:1,2009-02-04T08:00:00Z,26.4345,-81.9647,1.901,7.15,1111122 
SCCF RECON,ioos:station:SCCF:16:1,2009-02-04T09:00:00Z,26.4345,-81.9647,2.0,7.08,1111122 
SCCF RECON,ioos:station:SCCF:16:1,2009-02-04T10:00:00Z,26.4345,-81.9647,2.133,7.07,1111122 
SCCF RECON,ioos:station:SCCF:16:1,2009-02-04T11:00:00Z,26.4345,-81.9647,2.263,7.14,1111122 
SCCF RECON,ioos:station:SCCF:16:1,2009-02-04T12:00:00Z,26.4345,-81.9647,2.366,7.12,1111122 
SCCF RECON,ioos:station:SCCF:16:1,2009-02-04T13:00:00Z,26.4345,-81.9647,2.449,7.01,1111122 
SCCF RECON,ioos:station:SCCF:16:1,2009-02-04T14:00:00Z,26.4345,-81.9647,2.451,7.04,1111122 
SCCF RECON,ioos:station:SCCF:16:1,2009-02-04T15:00:00Z,26.4345,-81.9647,2.343,7.1,1111122 
SCCF RECON,ioos:station:SCCF:16:1,2009-02-04T16:00:00Z,26.4345,-81.9647,2.294,7.33,1111122 
SCCF RECON,ioos:station:SCCF:16:1,2009-02-04T17:00:00Z,26.4345,-81.9647,2.313,7.22,1111122 
SCCF RECON,ioos:station:SCCF:16:1,2009-02-04T18:00:00Z,26.4345,-81.9647,2.384,7.23,1111122 
SCCF RECON,ioos:station:SCCF:16:1,2009-02-04T19:00:00Z,26.4345,-81.9647,2.425,7.34,1111122 
SCCF RECON,ioos:station:SCCF:16:1,2009-02-04T20:00:00Z,26.4345,-81.9647,2.442,7.51,1111122 
SCCF RECON,ioos:station:SCCF:16:1,2009-02-04T21:00:00Z,26.4345,-81.9647,2.473,7.55,1111122 
SCCF RECON,ioos:station:SCCF:16:1,2009-02-04T22:00:00Z,26.4345,-81.9647,2.486,7.55,1111122 
SCCF RECON,ioos:station:SCCF:16:1,2009-02-04T23:00:00Z,26.4345,-81.9647,2.521,7.47,1111122 
SCCF RECON,ioos:station:SCCF:16:1,2009-02-05T00:00:00Z,26.4345,-81.9647,2.568,7.42,1111122 
SCCF RECON,ioos:station:SCCF:16:1,2009-02-05T01:00:00Z,26.4345,-81.9647,2.56,7.39,1111122 
SCCF RECON,ioos:station:SCCF:16:1,2009-02-05T02:00:00Z,26.4345,-81.9647,2.434,7.28,1111122 
SCCF RECON,ioos:station:SCCF:16:1,2009-02-05T03:00:00Z,26.4345,-81.9647,2.294,7.32,1111122 
SCCF RECON,ioos:station:SCCF:16:1,2009-02-05T04:00:00Z,26.4345,-81.9647,2.145,7.39,1111122 
SCCF RECON,ioos:station:SCCF:16:1,2009-02-05T05:00:00Z,26.4345,-81.9647,1.935,7.44,1111122 
SCCF RECON,ioos:station:SCCF:16:1,2009-02-05T06:00:00Z,26.4345,-81.9647,1.796,7.35,1111122 
SCCF RECON,ioos:station:SCCF:16:1,2009-02-05T07:00:00Z,26.4345,-81.9647,1.607,7.36,1111122 
SCCF RECON,ioos:station:SCCF:16:1,2009-02-05T08:00:00Z,26.4345,-81.9647,1.54,7.39,1111122 
SCCF RECON,ioos:station:SCCF:16:1,2009-02-05T09:00:00Z,26.4345,-81.9647,1.56,7.44,1111122 
SCCF RECON,ioos:station:SCCF:16:1,2009-02-05T10:00:00Z,26.4345,-81.9647,1.659,7.5,1111122 
SCCF RECON,ioos:station:SCCF:16:1,2009-02-05T11:00:00Z,26.4345,-81.9647,1.829,7.45,1111122 
SCCF RECON,ioos:station:SCCF:16:1,2009-02-05T12:00:00Z,26.4345,-81.9647,1.951,7.5,1111122 
SCCF RECON,ioos:station:SCCF:16:1,2009-02-05T13:00:00Z,26.4345,-81.9647,2.034,7.56,1111122 
SCCF RECON,ioos:station:SCCF:16:1,2009-02-05T14:00:00Z,26.4345,-81.9647,2.111,7.59,1111122 
SCCF RECON,ioos:station:SCCF:16:1,2009-02-05T15:00:00Z,26.4345,-81.9647,2.207,7.62,1111122 
SCCF RECON,ioos:station:SCCF:16:1,2009-02-05T16:00:00Z,26.4345,-81.9647,2.257,7.66,1111122 
SCCF RECON,ioos:station:SCCF:16:1,2009-02-05T17:00:00Z,26.4345,-81.9647,2.242,7.73,1111122 
SCCF RECON,ioos:station:SCCF:16:1,2009-02-05T18:00:00Z,26.4345,-81.9647,2.244,7.77,1111122 
SCCF RECON,ioos:station:SCCF:16:1,2009-02-05T19:00:00Z,26.4345,-81.9647,2.237,7.79,1111122 
SCCF RECON,ioos:station:SCCF:16:1,2009-02-05T20:00:00Z,26.4345,-81.9647,2.33,7.72,1111122 
SCCF RECON,ioos:station:SCCF:16:1,2009-02-05T21:00:00Z,26.4345,-81.9647,2.42,7.85,1111122 
SCCF RECON,ioos:station:SCCF:16:1,2009-02-05T22:00:00Z,26.4345,-81.9647,2.507,7.92,1111122 
SCCF RECON,ioos:station:SCCF:16:1,2009-02-05T23:00:00Z,26.4345,-81.9647,2.583,7.89,1111122 
SCCF RECON,ioos:station:SCCF:16:1,2009-02-06T00:00:00Z,26.4345,-81.9647,2.667,7.85,1111122 
SCCF RECON,ioos:station:SCCF:16:1,2009-02-06T01:00:00Z,26.4345,-81.9647,2.699,7.85,1111122 
SCCF RECON,ioos:station:SCCF:16:1,2009-02-06T02:00:00Z,26.4345,-81.9647,2.65,7.81,1111122 
SCCF RECON,ioos:station:SCCF:16:1,2009-02-06T03:00:00Z,26.4345,-81.9647,2.558,7.72,1111122 
SCCF RECON,ioos:station:SCCF:16:1,2009-02-06T04:00:00Z,26.4345,-81.9647,2.389,7.7,1111122 
SCCF RECON,ioos:station:SCCF:16:1,2009-02-06T05:00:00Z,26.4345,-81.9647,2.211,7.63,1111122 
SCCF RECON,ioos:station:SCCF:16:1,2009-02-06T06:00:00Z,26.4345,-81.9647,2.024,7.54,1111122 
SCCF RECON,ioos:station:SCCF:16:1,2009-02-06T07:00:00Z,26.4345,-81.9647,1.811,7.56,1111122 
SCCF RECON,ioos:station:SCCF:16:1,2009-02-06T08:00:00Z,26.4345,-81.9647,1.698,7.66,1111122 
SCCF RECON,ioos:station:SCCF:16:1,2009-02-06T09:00:00Z,26.4345,-81.9647,1.629,7.64,1111122 
SCCF RECON,ioos:station:SCCF:16:1,2009-02-06T10:00:00Z,26.4345,-81.9647,1.685,7.66,1111122 
SCCF RECON,ioos:station:SCCF:16:1,2009-02-06T11:00:00Z,26.4345,-81.9647,1.864,7.67,1111122 
SCCF RECON,ioos:station:SCCF:16:1,2009-02-06T12:00:00Z,26.4345,-81.9647,2.027,7.66,1111122 
SCCF RECON,ioos:station:SCCF:16:1,2009-02-06T13:00:00Z,26.4345,-81.9647,2.186,7.72,1111122 
SCCF RECON,ioos:station:SCCF:16:1,2009-02-06T14:00:00Z,26.4345,-81.9647,2.304,7.72,1111122 
SCCF RECON,ioos:station:SCCF:16:1,2009-02-06T15:00:00Z,26.4345,-81.9647,2.427,7.75,1111122 
SCCF RECON,ioos:station:SCCF:16:1,2009-02-06T16:00:00Z,26.4345,-81.9647,2.49,7.82,1111122 
SCCF RECON,ioos:station:SCCF:16:1,2009-02-06T17:00:00Z,26.4345,-81.9647,2.441,7.83,1111122 
SCCF RECON,ioos:station:SCCF:16:1,2009-02-06T18:00:00Z,26.4345,-81.9647,2.397,7.85,1111122 
SCCF RECON,ioos:station:SCCF:16:1,2009-02-06T19:00:00Z,26.4345,-81.9647,2.359,7.84,1111122 
SCCF RECON,ioos:station:SCCF:16:1,2009-02-06T20:00:00Z,26.4345,-81.9647,2.372,7.88,1111122 
SCCF RECON,ioos:station:SCCF:16:1,2009-02-06T21:00:00Z,26.4345,-81.9647,2.432,7.94,1111122 
SCCF RECON,ioos:station:SCCF:16:1,2009-02-06T22:00:00Z,26.4345,-81.9647,2.519,7.99,1111122 
SCCF RECON,ioos:station:SCCF:16:1,2009-02-06T23:00:00Z,26.4345,-81.9647,2.625,7.97,1111122 
SCCF RECON,ioos:station:SCCF:16:1,2009-02-07T00:00:00Z,26.4345,-81.9647,2.716,7.93,1111122 
SCCF RECON,ioos:station:SCCF:16:1,2009-02-07T01:00:00Z,26.4345,-81.9647,2.756,7.97,1111122 
SCCF RECON,ioos:station:SCCF:16:1,2009-02-07T02:00:00Z,26.4345,-81.9647,2.77,7.94,1111122 
SCCF RECON,ioos:station:SCCF:16:1,2009-02-07T03:00:00Z,26.4345,-81.9647,2.767,7.91,1111122 
SCCF RECON,ioos:station:SCCF:16:1,2009-02-07T04:00:00Z,26.4345,-81.9647,2.715,7.86,1111122 
SCCF RECON,ioos:station:SCCF:16:1,2009-02-07T05:00:00Z,26.4345,-81.9647,2.519,7.8,1111122 
SCCF RECON,ioos:station:SCCF:16:1,2009-02-07T06:00:00Z,26.4345,-81.9647,2.268,7.78,1111122 
SCCF RECON,ioos:station:SCCF:16:1,2009-02-07T07:00:00Z,26.4345,-81.9647,2.004,7.72,1111122 
SCCF RECON,ioos:station:SCCF:16:1,2009-02-07T08:00:00Z,26.4345,-81.9647,1.759,7.66,1111122 
SCCF RECON,ioos:station:SCCF:16:1,2009-02-07T09:00:00Z,26.4345,-81.9647,1.619,7.7,1111122 
SCCF RECON,ioos:station:SCCF:16:1,2009-02-07T10:00:00Z,26.4345,-81.9647,1.583,7.69,1111122 
SCCF RECON,ioos:station:SCCF:16:1,2009-02-07T11:00:00Z,26.4345,-81.9647,1.714,7.81,1111122 
SCCF RECON,ioos:station:SCCF:16:1,2009-02-07T12:00:00Z,26.4345,-81.9647,1.971,7.72,1111122 
SCCF RECON,ioos:station:SCCF:16:1,2009-02-07T13:00:00Z,26.4345,-81.9647,2.179,7.82,1111122 
SCCF RECON,ioos:station:SCCF:16:1,2009-02-07T14:00:00Z,26.4345,-81.9647,2.339,7.83,1111122 
SCCF RECON,ioos:station:SCCF:16:1,2009-02-07T15:00:00Z,26.4345,-81.9647,2.484,7.84,1111122 
SCCF RECON,ioos:station:SCCF:16:1,2009-02-07T16:00:00Z,26.4345,-81.9647,2.559,7.84,1111122 
SCCF RECON,ioos:station:SCCF:16:1,2009-02-07T17:00:00Z,26.4345,-81.9647,2.575,7.89,1111122 
SCCF RECON,ioos:station:SCCF:16:1,2009-02-07T18:00:00Z,26.4345,-81.9647,2.509,7.9,1111122 
SCCF RECON,ioos:station:SCCF:16:1,2009-02-07T19:00:00Z,26.4345,-81.9647,2.423,7.88,1111122 
SCCF RECON,ioos:station:SCCF:16:1,2009-02-07T20:00:00Z,26.4345,-81.9647,2.368,7.86,1111122 
SCCF RECON,ioos:station:SCCF:16:1,2009-02-07T21:00:00Z,26.4345,-81.9647,2.352,7.86,1111122 
SCCF RECON,ioos:station:SCCF:16:1,2009-02-07T22:00:00Z,26.4345,-81.9647,2.354,7.88,1111122 
SCCF RECON,ioos:station:SCCF:16:1,2009-02-07T23:00:00Z,26.4345,-81.9647,2.464,7.93,1111122 
SCCF RECON,ioos:station:SCCF:16:1,2009-02-08T00:00:00Z,26.4345,-81.9647,2.594,7.97,1111122 
SCCF RECON,ioos:station:SCCF:16:1,2009-02-08T01:00:00Z,26.4345,-81.9647,2.719,7.96,1111122 
SCCF RECON,ioos:station:SCCF:16:1,2009-02-08T02:00:00Z,26.4345,-81.9647,2.804,7.96,1111122 
SCCF RECON,ioos:station:SCCF:16:1,2009-02-08T03:00:00Z,26.4345,-81.9647,2.843,7.92,1111122 
SCCF RECON,ioos:station:SCCF:16:1,2009-02-08T04:00:00Z,26.4345,-81.9647,2.851,7.9,1111122 
SCCF RECON,ioos:station:SCCF:16:1,2009-02-08T05:00:00Z,26.4345,-81.9647,2.744,7.84,1111122 
SCCF RECON,ioos:station:SCCF:16:1,2009-02-08T06:00:00Z,26.4345,-81.9647,2.507,7.8,1111122 
SCCF RECON,ioos:station:SCCF:16:1,2009-02-08T07:00:00Z,26.4345,-81.9647,2.232,7.78,1111122 
SCCF RECON,ioos:station:SCCF:16:1,2009-02-08T08:00:00Z,26.4345,-81.9647,1.969,7.72,1111122 
SCCF RECON,ioos:station:SCCF:16:1,2009-02-08T09:00:00Z,26.4345,-81.9647,1.714,7.7,1111122 
SCCF RECON,ioos:station:SCCF:16:1,2009-02-08T10:00:00Z,26.4345,-81.9647,1.546,7.69,1111122 
SCCF RECON,ioos:station:SCCF:16:1,2009-02-08T11:00:00Z,26.4345,-81.9647,1.539,7.69,1111122 
SCCF RECON,ioos:station:SCCF:16:1,2009-02-08T12:00:00Z,26.4345,-81.9647,1.712,7.75,1111122 
SCCF RECON,ioos:station:SCCF:16:1,2009-02-08T13:00:00Z,26.4345,-81.9647,1.992,7.77,1111122 
SCCF RECON,ioos:station:SCCF:16:1,2009-02-08T14:00:00Z,26.4345,-81.9647,2.18,7.84,1111122 
SCCF RECON,ioos:station:SCCF:16:1,2009-02-08T15:00:00Z,26.4345,-81.9647,2.337,7.88,1111122 
SCCF RECON,ioos:station:SCCF:16:1,2009-02-08T16:00:00Z,26.4345,-81.9647,2.49,7.89,1111122 
SCCF RECON,ioos:station:SCCF:16:1,2009-02-08T17:00:00Z,26.4345,-81.9647,2.546,7.87,1111122 
SCCF RECON,ioos:station:SCCF:16:1,2009-02-08T18:00:00Z,26.4345,-81.9647,2.478,7.9,1111122 
SCCF RECON,ioos:station:SCCF:16:1,2009-02-08T19:00:00Z,26.4345,-81.9647,2.339,7.88,1111122 
SCCF RECON,ioos:station:SCCF:16:1,2009-02-08T20:00:00Z,26.4345,-81.9647,2.255,7.91,1111122 
SCCF RECON,ioos:station:SCCF:16:1,2009-02-08T21:00:00Z,26.4345,-81.9647,2.254,7.95,1111122 
SCCF RECON,ioos:station:SCCF:16:1,2009-02-08T22:00:00Z,26.4345,-81.9647,2.235,7.97,1111122 
SCCF RECON,ioos:station:SCCF:16:1,2009-02-08T23:00:00Z,26.4345,-81.9647,2.254,7.98,1111122 
SCCF RECON,ioos:station:SCCF:16:1,2009-02-09T00:00:00Z,26.4345,-81.9647,2.397,8.01,1111122 
SCCF RECON,ioos:station:SCCF:16:1,2009-02-09T01:00:00Z,26.4345,-81.9647,2.591,8.03,1111122 
SCCF RECON,ioos:station:SCCF:16:1,2009-02-09T02:00:00Z,26.4345,-81.9647,2.694,8.0,1111122 
SCCF RECON,ioos:station:SCCF:16:1,2009-02-09T03:00:00Z,26.4345,-81.9647,2.763,7.98,1111122 
SCCF RECON,ioos:station:SCCF:16:1,2009-02-09T04:00:00Z,26.4345,-81.9647,2.848,7.96,1111122 
SCCF RECON,ioos:station:SCCF:16:1,2009-02-09T05:00:00Z,26.4345,-81.9647,2.875,7.94,1111122 
SCCF RECON,ioos:station:SCCF:16:1,2009-02-09T06:00:00Z,26.4345,-81.9647,2.734,7.86,1111122 
SCCF RECON,ioos:station:SCCF:16:1,2009-02-09T07:00:00Z,26.4345,-81.9647,2.473,7.82,1111122 
SCCF RECON,ioos:station:SCCF:16:1,2009-02-09T08:00:00Z,26.4345,-81.9647,2.247,7.79,1111122 
SCCF RECON,ioos:station:SCCF:16:1,2009-02-09T09:00:00Z,26.4345,-81.9647,1.98,7.8,1111122 
SCCF RECON,ioos:station:SCCF:16:1,2009-02-09T10:00:00Z,26.4345,-81.9647,1.718,7.76,1111122 
SCCF RECON,ioos:station:SCCF:16:1,2009-02-09T11:00:00Z,26.4345,-81.9647,1.618,7.68,1111122 
SCCF RECON,ioos:station:SCCF:16:1,2009-02-09T12:00:00Z,26.4345,-81.9647,1.661,7.67,1111122 
SCCF RECON,ioos:station:SCCF:16:1,2009-02-09T13:00:00Z,26.4345,-81.9647,1.93,7.67,1111122 
SCCF RECON,ioos:station:SCCF:16:1,2009-02-09T14:00:00Z,26.4345,-81.9647,2.207,7.65,1111122 
SCCF RECON,ioos:station:SCCF:16:1,2009-02-09T15:00:00Z,26.4345,-81.9647,2.362,7.78,1111122 
SCCF RECON,ioos:station:SCCF:16:1,2009-02-09T16:00:00Z,26.4345,-81.9647,2.497,7.88,1111122 
SCCF RECON,ioos:station:SCCF:16:1,2009-02-09T17:00:00Z,26.4345,-81.9647,2.611,7.9,1111122 
SCCF RECON,ioos:station:SCCF:16:1,2009-02-09T18:00:00Z,26.4345,-81.9647,2.658,7.89,1111122 
SCCF RECON,ioos:station:SCCF:16:1,2009-02-09T19:00:00Z,26.4345,-81.9647,2.56,7.91,1111122 
SCCF RECON,ioos:station:SCCF:16:1,2009-02-09T20:00:00Z,26.4345,-81.9647,2.398,7.87,1111122 
SCCF RECON,ioos:station:SCCF:16:1,2009-02-09T21:00:00Z,26.4345,-81.9647,2.282,7.96,1111122 
SCCF RECON,ioos:station:SCCF:16:1,2009-02-09T22:00:00Z,26.4345,-81.9647,2.203,7.93,1111122 
SCCF RECON,ioos:station:SCCF:16:1,2009-02-09T23:00:00Z,26.4345,-81.9647,2.19,7.92,1111122 
SCCF RECON,ioos:station:SCCF:16:1,2009-02-10T00:00:00Z,26.4345,-81.9647,2.272,7.88,1111122 
SCCF RECON,ioos:station:SCCF:16:1,2009-02-10T01:00:00Z,26.4345,-81.9647,2.4,7.87,1111122 
SCCF RECON,ioos:station:SCCF:16:1,2009-02-10T02:00:00Z,26.4345,-81.9647,2.587,7.92,1111122 
SCCF RECON,ioos:station:SCCF:16:1,2009-02-10T03:00:00Z,26.4345,-81.9647,2.724,7.93,1111122 
SCCF RECON,ioos:station:SCCF:16:1,2009-02-10T04:00:00Z,26.4345,-81.9647,2.807,7.95,1111122 
SCCF RECON,ioos:station:SCCF:16:1,2009-02-10T05:00:00Z,26.4345,-81.9647,2.864,7.94,1111122 
SCCF RECON,ioos:station:SCCF:16:1,2009-02-10T06:00:00Z,26.4345,-81.9647,2.833,7.91,1111122 
SCCF RECON,ioos:station:SCCF:16:1,2009-02-10T07:00:00Z,26.4345,-81.9647,2.676,7.8,1111122 
SCCF RECON,ioos:station:SCCF:16:1,2009-02-10T08:00:00Z,26.4345,-81.9647,2.449,7.79,1111122 
SCCF RECON,ioos:station:SCCF:16:1,2009-02-10T09:00:00Z,26.4345,-81.9647,2.197,7.75,1111122 
SCCF RECON,ioos:station:SCCF:16:1,2009-02-10T10:00:00Z,26.4345,-81.9647,1.974,7.72,1111122 
SCCF RECON,ioos:station:SCCF:16:1,2009-02-10T11:00:00Z,26.4345,-81.9647,1.761,7.62,1111122 
SCCF RECON,ioos:station:SCCF:16:1,2009-02-10T12:00:00Z,26.4345,-81.9647,1.711,7.59,1111122 
SCCF RECON,ioos:station:SCCF:16:1,2009-02-10T13:00:00Z,26.4345,-81.9647,1.861,7.62,1111122 
SCCF RECON,ioos:station:SCCF:16:1,2009-02-10T14:00:00Z,26.4345,-81.9647,2.131,7.63,1111122 
SCCF RECON,ioos:station:SCCF:16:1,2009-02-10T15:00:00Z,26.4345,-81.9647,2.401,7.65,1111122 
SCCF RECON,ioos:station:SCCF:16:1,2009-02-10T16:00:00Z,26.4345,-81.9647,2.563,7.74,1111122 
SCCF RECON,ioos:station:SCCF:16:1,2009-02-10T17:00:00Z,26.4345,-81.9647,2.646,7.79,1111122 
SCCF RECON,ioos:station:SCCF:16:1,2009-02-10T18:00:00Z,26.4345,-81.9647,2.67,7.84,1111122 
SCCF RECON,ioos:station:SCCF:16:1,2009-02-10T19:00:00Z,26.4345,-81.9647,2.647,7.85,1111122 
SCCF RECON,ioos:station:SCCF:16:1,2009-02-10T20:00:00Z,26.4345,-81.9647,2.539,7.82,1111122 
SCCF RECON,ioos:station:SCCF:16:1,2009-02-10T21:00:00Z,26.4345,-81.9647,2.404,7.84,1111122 
SCCF RECON,ioos:station:SCCF:16:1,2009-02-10T22:00:00Z,26.4345,-81.9647,2.298,7.86,1111122 
SCCF RECON,ioos:station:SCCF:16:1,2009-02-10T23:00:00Z,26.4345,-81.9647,2.209,7.87,1111122 
SCCF RECON,ioos:station:SCCF:16:1,2009-02-11T00:00:00Z,26.4345,-81.9647,2.146,7.84,1111122 
SCCF RECON,ioos:station:SCCF:16:1,2009-02-11T01:00:00Z,26.4345,-81.9647,2.206,7.82,1111122 
SCCF RECON,ioos:station:SCCF:16:1,2009-02-11T02:00:00Z,26.4345,-81.9647,2.4,7.83,1111122 
SCCF RECON,ioos:station:SCCF:16:1,2009-02-11T03:00:00Z,26.4345,-81.9647,2.62,7.79,1111122 
SCCF RECON,ioos:station:SCCF:16:1,2009-02-11T04:00:00Z,26.4345,-81.9647,2.804,7.82,1111122 
SCCF RECON,ioos:station:SCCF:16:1,2009-02-11T05:00:00Z,26.4345,-81.9647,2.905,7.88,1111122 
SCCF RECON,ioos:station:SCCF:16:1,2009-02-11T06:00:00Z,26.4345,-81.9647,2.934,7.88,1111122 
SCCF RECON,ioos:station:SCCF:16:1,2009-02-11T07:00:00Z,26.4345,-81.9647,2.875,7.84,1111122 
SCCF RECON,ioos:station:SCCF:16:1,2009-02-11T08:00:00Z,26.4345,-81.9647,2.683,7.71,1111122 
SCCF RECON,ioos:station:SCCF:16:1,2009-02-11T09:00:00Z,26.4345,-81.9647,2.46,7.69,1111122 
SCCF RECON,ioos:station:SCCF:16:1,2009-02-11T10:00:00Z,26.4345,-81.9647,2.275,7.65,1111122 
SCCF RECON,ioos:station:SCCF:16:1,2009-02-11T11:00:00Z,26.4345,-81.9647,2.103,7.58,1111122 
SCCF RECON,ioos:station:SCCF:16:1,2009-02-11T12:00:00Z,26.4345,-81.9647,1.967,7.53,1111122 
SCCF RECON,ioos:station:SCCF:16:1,2009-02-11T13:00:00Z,26.4345,-81.9647,1.94,7.51,1111122 
SCCF RECON,ioos:station:SCCF:16:1,2009-02-11T14:00:00Z,26.4345,-81.9647,2.108,7.44,1111122 
SCCF RECON,ioos:station:SCCF:16:1,2009-02-11T15:00:00Z,26.4345,-81.9647,2.401,7.48,1111122 
SCCF RECON,ioos:station:SCCF:16:1,2009-02-11T16:00:00Z,26.4345,-81.9647,2.67,7.65,1111122 
SCCF RECON,ioos:station:SCCF:16:1,2009-02-11T17:00:00Z,26.4345,-81.9647,2.737,7.67,1111122 
SCCF RECON,ioos:station:SCCF:16:1,2009-02-11T18:00:00Z,26.4345,-81.9647,2.774,7.73,1111122 
SCCF RECON,ioos:station:SCCF:16:1,2009-02-11T19:00:00Z,26.4345,-81.9647,2.772,7.75,1111122 